Regional Weather Roundup
Issued by NWS Green Bay, WI

Home | Current Version | Previous Version | Text Only | Print | Product List | Glossary On
Versions: 1 2 3 4 5 6 7 8 9 10 11 12 13 14 15 16 17 18 19 20 21 22 23 24 25 26 27 28 29 30 31 32 33 34 35 36 37 38 39 40 41 42 43 44 45 46 47 48 49 50
000
ASUS43 KGRB 230300
RWRGRB

NORTH-CENTRAL AND NORTHEAST WISCONSIN REGIONAL WEATHER ROUNDUP
NATIONAL WEATHER SERVICE GREEN BAY WI
1000 PM CDT FRI MAY 22 2015

WIZ005-009-010>012-018-019-230400-
NORTH CENTRAL WISCONSIN

CITY           SKY/WX    TMP DP  RH WIND       PRES   REMARKS
IRONWOOD       CLEAR     54  34  47 S6        30.17R
MANITOWISH WTR NOT AVBL
ARBOR VITAE    NOT AVBL
EAGLE RIVER    NOT AVBL
LAND O LAKES   NOT AVBL
RHINELANDER    CLEAR     46  33  60 CALM      30.23R
PHILLIPS       NOT AVBL
ANTIGO         NOT AVBL
TOMAHAWK       NOT AVBL
MERRILL        NOT AVBL
$$

WIZ013-073-230400-
NORTHEAST WISCONSIN

CITY           SKY/WX    TMP DP  RH WIND       PRES   REMARKS
IRON MOUNTAIN  CLEAR     48  32  53 SE3       30.25R
MARINETTE      CLEAR     46  28  49 SE8       30.27R
$$

WIZ017-030-035>037-045-230400-
CENTRAL WISCONSIN

CITY           SKY/WX    TMP DP  RH WIND       PRES   REMARKS
MEDFORD        NOT AVBL
WAUSAU         CLEAR     57  41  55 CALM      30.22R
MOSINEE        CLEAR     54  39  58 S3        30.24R
MARSHFIELD     PTCLDY    57  37  47 CALM      30.24R
WISC RAPIDS    LGT RAIN  54  35  48 CALM      30.24R
STEVENS POINT  NOT AVBL
WAUPACA        NOT AVBL
SHAWANO        NOT AVBL
CLINTONVILLE   NOT AVBL
$$

WIZ038-039-048-051-230400-
FOX VALLEY

CITY           SKY/WX    TMP DP  RH WIND       PRES   REMARKS
NWS GREEN BAY  CLEAR     53  29  39 S8        30.26R
APPLETON       PTCLDY    54  34  47 S10       30.26R
OSHKOSH        MOCLDY    51  29  42 S9        30.26R
FOND DU LAC    MOCLDY    52  24  33 S8        30.27R
$$

WIZ022-050-052-230400-
EAST CENTRAL WISCONSIN

CITY           SKY/WX    TMP DP  RH WIND       PRES   REMARKS
STURGEON BAY   CLEAR     45  21  39 S8        30.30R
MANITOWOC      NOT AVBL
SHEBOYGAN      PTCLDY    44  28  53 SW6       30.28S
$$

LMZ563-521-522-541>543-230400-
LAKESHORE

STATION/POSITION TIME  TEMP    WIND        PRES    VSBY  WAVE
                       AIR SEA DIR/SP/G                  HT/PER
                 (UTC) (F)     (DEG/KT/KT) (MB)    (MI)  (FT/S)
SHEBOYGAN LKSHOR 0200   49     200/ 10/ 12 1026.0R
KEWAUNEE LKSHORE 0200   46     170/  7/  9 1024.1R
NORTHPORT PIER   0200   47     170/  4/  7 1024.7S
N MID LAKE BUOY  0150   42 36  210/  4/  4 1025.4F         0
SISTER BAY LKSHO 0247   45        CALM       N/A
CHAMBERS ISLAND  0200   47     130/  3/  5 1025.1R
MENOMINEE LKSHOR 0200   51     140/ 11/ 13 1025.0R
$$



USA.gov is the U.S. government's official web portal to all federal, state and local government web resources and services.